Location: Valley of Enchantment
(34.2467°N, 117.3048°W)
Time: 13:54:34
(UTC+00:00)

Cosmos 1726 Rocket - Pass Details

Date: 10 September 2024
Orbit: 599 x 624 km, 82.5° (Epoch: 10 October)

Event Time Altitude Azimuth Distance (km) Brightness Sun altitude
Rises 12:36:34 0° 200° (SSW) 2,833 6.6 -11.6°
Reaches altitude 10° 12:38:50 10° 207° (SSW) 1,937 5.7 -11.1°
Maximum altitude 12:42:56 44° 279° (W) 839 3.8 -10.3°
Drops below altitude 10° 12:47:05 10° 352° (N) 1,963 6.2 -9.5°
Sets 12:49:24 0° 359° (N) 2,875 7.1 -9.0°
